sat.trackr.live / text

‹ back to catalog

STARLINK-36400

NORAD 67575 · 2026-016Q

PAYLOAD ACTIVE UNKNOWN

§ Identity

Operator
Country
US
Launch date
2026-01-25
Launch site
AFWTR
Launch vehicle
Mass (kg)
RCS (m²)

Purposes: comms

External: N2YO · Heavens-Above · Gunter

§ Orbital elements

Epoch: 2026-09-19T09:58:28.773984Z

Period
93.91 min
Inclination
97.2808°
Eccentricity
0.0002325
Mean motion
15.33459368 rev/d
Perigee alt
463.9 km
Apogee alt
467.1 km
Semi-major
6,843.6 km
B*
4.4283e-4
RAAN
321.0829°
Arg perigee
103.5708°
Mean anomaly
256.5794°
Rev number
3,655

§ Raw data

STARLINK-364001 67575U 26016Q   26262.41561081  .00014255  00000+0  44283-3 0  99992 67575  97.2808 321.0829 0002325 103.5708 256.5794 15.33459368 36551

JSON: /api/v1/satellites/67575 · /tle

For live sub-satellite position, see the globe view (requires WebGL).

§ Visibility from observer

Set your observer location to see the next 7 days of passes ≥ 10°. The values pass through the URL so the page stays shareable.

No JS? Fill the form by hand. The geolocation button needs JavaScript.